Regional Weather Roundup
Issued by NWS

Home | Current Version | Previous Version | Graphics & Text | Print | Product List | Glossary On
Versions: 1 2 3 4 5 6 7 8 9 10 11 12 13 14 15 16 17 18 19 20 21 22 23 24 25 26 27 28 29 30 31 32 33 34 35 36 37 38 39 40 41 42 43 44 45 46 47 48 49 50
000
ASUS45 KPSR 241800
RWRAZ

PRELIMINARY ARIZONA REGIONAL HOURLY WEATHER ROUNDUP
NATIONAL WEATHER SERVICE PHOENIX AZ
1100 AM MST THU JUL 24 2014

NOTE: FAIR INDICATES FEW OR NO CLOUDS BELOW 12,000 FEET WITH NO
SIGNIFICANT WEATHER AND/OR OBSTRUCTIONS TO VISIBILITY.

AZZ001>003-036-241900-
NORTHWEST ARIZONA

CITY           SKY/WX    TMP DP  RH WIND       PRES   REMARKS
KINGMAN        MOSUNNY   97  47  18 VRB3      30.04F
6HR MIN TEMP:  73; 6HR MAX TEMP:  99;

$$

AZZ004>008-015-016-018-241900-
NORTH CENTRAL ARIZONA

CITY           SKY/WX    TMP DP  RH WIND       PRES   REMARKS
GRAND CANYON   PTSUNNY   81  49  32 S9        30.35F
6HR MIN TEMP:  63; 6HR MAX TEMP:  82;

WILLIAMS       CLOUDY    77  50  38 S9        30.42S
PRESCOTT       PTSUNNY   90  51  26 MISG      30.20F
6HR MIN TEMP:  74; 6HR MAX TEMP:  90;

FLAGSTAFF      PTSUNNY   79  48  33 MISG      30.38F
6HR MIN TEMP:  63; 6HR MAX TEMP:  79; 6HR PCP: TRACE;

PAYSON         MOSUNNY   90  46  22 VRB7G13   30.24F
PAGE           PTSUNNY   92  53  26 NW7       30.14S
6HR MIN TEMP:  84; 6HR MAX TEMP:  92;

$$

AZZ009>014-017-241900-
NORTHEAST ARIZONA

CITY           SKY/WX    TMP DP  RH WIND       PRES   REMARKS
WINSLOW        NOT AVBL
SAINT JOHNS    SUNNY     85  43  22 VRB3G16   30.27F
6HR MIN TEMP:  65; 6HR MAX TEMP:  86;

WINDOW ROCK    MOSUNNY   84  42  22 SW14G21   30.37F
6HR MIN TEMP:  55; 6HR MAX TEMP:  86;

$$

AZZ023-241900-
GREATER PHOENIX AREA

CITY           SKY/WX    TMP DP  RH WIND       PRES   REMARKS
PHOENIX        MOSUNNY  108  53  16 SE10      29.83F HX 106
6HR MIN TEMP:  95; 6HR MAX TEMP: 108;

BUCKEYE          N/A    104  59  22 SE14      29.83F HX 104
GLENDALE       MOSUNNY  108  55  18 NE8       29.85F HX 106
DEER VALLEY    MOSUNNY  105  49  15 SE12      29.87F HX 102
6HR MIN TEMP:  91; 6HR MAX TEMP: 105;

SCOTTSDALE     SUNNY    104  56  20 SE6       29.88F HX 103
6HR MIN TEMP:  86; 6HR MAX TEMP: 104;

MESA-GATEWAY   MOSUNNY  106  45  12 SE12      29.88F HX 101
CHANDLER       MOSUNNY  104  57  21 E9          N/A  HX 103
$$

AZZ027-028-241900-
SOUTHWEST MARICOPA COUNTY AND PINAL COUNTY

CITY           SKY/WX    TMP DP  RH WIND       PRES   REMARKS
CASA GRANDE    SUNNY    104  54  18 E8        29.88F HX 102
6HR MIN TEMP:  86; 6HR MAX TEMP: 104;

GILA BEND      PTCLDY   108  55  18 VRB7      29.81F HX 106
$$

AZZ503-504-507>509-241900-
SOUTHEAST ARIZONA

CITY           SKY/WX    TMP DP  RH WIND       PRES   REMARKS
TUCSON         SUNNY    103  39  11 E17G24    29.99S
6HR MIN TEMP:  80; 6HR MAX TEMP: 103;

DAVIS-MONTHAN  SUNNY    101  42  13 SE16G24   29.97S
6HR MIN TEMP:  79; 6HR MAX TEMP: 101;

RYAN FIELD       N/A    100  48  17 E13       29.97F
SAFFORD        SUNNY     95  48  20 S8        30.07F
6HR MIN TEMP:  75; 6HR MAX TEMP:  95;

$$

AZZ020-021-025-026-031-241900-
SOUTHWEST ARIZONA

CITY           SKY/WX    TMP DP  RH WIND       PRES   REMARKS
YUMA           NOT AVBL
$$

CAZ031-033-041-043-047-048-061-241900-
SOUTHERN CALIFORNIA

CITY           SKY/WX    TMP DP  RH WIND       PRES   REMARKS
DOWNTOWN L.A.  SUNNY     87  60  40 SW5       29.83F
6HR MIN TEMP:  65; 6HR MAX TEMP:  88;

L.A. AIRPORT   MOSUNNY   80  62  54 W8        29.85S
6HR MIN TEMP:  67; 6HR MAX TEMP:  80;

SAN DIEGO      MOSUNNY   77  64  64 W7        29.85F
6HR MIN TEMP:  69; 6HR MAX TEMP:  77;

BURBANK        SUNNY     92  47  21 VRB3      29.85F
6HR MIN TEMP:  67; 6HR MAX TEMP:  92;

ONTARIO        MOSUNNY   90  48  23 CALM      29.86F
6HR MIN TEMP:  69; 6HR MAX TEMP:  90;

RIVERSIDE      SUNNY     91  46  21 VRB5      29.85F
6HR MIN TEMP:  65; 6HR MAX TEMP:  91;

PALM SPRINGS   SUNNY    105  35   9 E5        29.79F
6HR MIN TEMP:  82; 6HR MAX TEMP: 105;

EL CENTRO NAS  PTSUNNY  107  54  17 E10       29.73S HX 105
6HR MIN TEMP:  81; 6HR MAX TEMP: 107;

IMPERIAL       SUNNY    104  53  18 E10       29.73F HX 102
6HR MIN TEMP:  86; 6HR MAX TEMP: 106;

BLYTHE         SUNNY    105  46  13 S5        29.77F HX 101
6HR MIN TEMP:  87; 6HR MAX TEMP: 105;

$$

NVZ020-UTZ003-241900-
SOUTHERN NEVADA-UTAH

CITY           SKY/WX    TMP DP  RH WIND       PRES   REMARKS
LAS VEGAS      NOT AVBL
SALT LAKE CITY MOSUNNY   88  44  21 NW14      30.04S
6HR MIN TEMP:  78; 6HR MAX TEMP:  89;

$$

NMZ009-TXZ055-241900-
NEW MEXICO-WEST TEXAS

CITY           SKY/WX    TMP DP  RH WIND       PRES   REMARKS
ALBUQUERQUE    MOSUNNY   85  47  26 VRB5      30.30F
6HR MIN TEMP:  69; 6HR MAX TEMP:  85;

EL PASO        MOSUNNY   90  53  28 NE3       30.18F
6HR MIN TEMP:  74; 6HR MAX TEMP:  90;

$$


........................KEY........................
SKY/WX - SKY CONDITION/WEATHER
TMP    - TEMPERATURE IN FAHRENHEIT
DP     - DEW POINT IN FAHRENHEIT
RH     - RELATIVE HUMIDITY IN PERCENT
WIND   - DIRECTION AND SPEED IN MILES PER HOUR (MPH)
VRB    - VARIABLE WIND DIRECTION
PRES   - MEAN SEA LEVEL PRESSURE IN INCHES OF MERCURY
         F - FALLING PRESSURE   R - RISING PRESSURE
         S - STEADY PRESSURE
VSB    - VISIBILITY IN MILES
HX     - HEAT INDEX IN FAHRENHEIT
WCI    - WIND CHILL INDEX IN FAHRENHEIT
TC     - TEMPERATURE IN CELSIUS WHICH IS ALSO KNOWN AS
         TEMPERATURE IN CENTIGRADE
AFB    - AIR FORCE BASE
         LUKE AFB IS LUKE AIR FORCE BASE
         DAVIS-MONTHAN IS DAVIS-MONTHAN AIR FORCE BASE
NAS    - NAVAL AIR STATION
         EL CENTRO NAS IS EL CENTRO NAVAL AIR STATION
N/A    - NOT AVAILABLE


USA.gov is the U.S. government's official web portal to all federal, state and local government web resources and services.